Flag for U.S.A. Weather past 2 weeks in Daytona Beach, Florida, U.S.A.

83 °F

Partly sunny.

Feels Like: 87 °F
Forecast: 75 / 84 °F
Wind: 14 mph from East

Location: Daytona Beach Regional Airport

Current Time: Oct 9, 2015 at 1:56:18 PM

Latest Report: Oct 9, 2015 at 12:53 PM

Visibility: 10 mi

Pressure: 30.07 "Hg

Humidity: 65%

Dew point: 70 °F

Location of Daytona BeachLocation

Historic Weather in Daytona Beach — Graph


Daytona Beach temperature yesterday

Maximum temperature yesterday: 83 °F (at 2:53 PM)
Minimum temperature yesterday: 67 °F (at 3:53 AM)
Average temperature yesterday: 76 °F

Past Weeks' High & Low Weather Summary

High87 °F (Sep 27, 12:53 PM)97% (Sep 26, 2:53 AM)30.09 "Hg (Sep 26, 2:53 AM)
Low62 °F (Oct 4, 5:53 AM)56% (Oct 5, 2:53 PM)29.54 "Hg (Oct 3, 5:53 AM)
Average76 °F83%29.84 "Hg
* Reported Sep 24 11:53 AM — Oct 9 11:53 AM, Daytona Beach, Weather by CustomWeather, © 2015

Note: Actual official high and low records may vary slightly from our data, if they occured in-between our weather recording intervals... More about our weather records


Daytona Beach weather history for previous 24 hours

Time TempWeatherWind HumidityBarometerVisibility
11:53 AM
Fri, Oct 9
85 °FScattered clouds.15 mph63%30.09 "Hg10 mi
10:53 AM84 °FScattered clouds.15 mph65%30.09 "Hg10 mi
9:53 AM83 °FPassing clouds.13 mph63%30.09 "Hg10 mi
8:53 AM81 °FPassing clouds.8 mph69%30.08 "Hg10 mi
7:53 AM76 °FPartly cloudy.5 mph82%30.06 "Hg10 mi
6:53 AM77 °FPassing clouds.6 mph79%30.05 "Hg10 mi
5:53 AM77 °FPassing clouds.7 mph79%30.03 "Hg10 mi
4:53 AM78 °FPassing clouds.5 mph76%30.02 "Hg10 mi
3:53 AM79 °FPassing clouds.7 mph74%30.02 "Hg10 mi
2:53 AM78 °FPartly cloudy.6 mph79%30.03 "Hg10 mi
1:53 AM78 °FPassing clouds.5 mph79%30.03 "Hg10 mi
12:53 AM78 °FPassing clouds.5 mph74%30.05 "Hg10 mi
11:53 PM
Thu, Oct 8
79 °FPassing clouds.7 mph67%30.07 "Hg10 mi
10:53 PM79 °FPassing clouds.7 mph72%30.07 "Hg10 mi
9:53 PM80 °FPassing clouds.8 mph71%30.06 "Hg10 mi
8:53 PM79 °FPassing clouds.7 mph72%30.04 "Hg10 mi
7:53 PM79 °FPartly sunny.9 mph72%30.03 "Hg10 mi
6:53 PM80 °FPartly sunny.9 mph74%30.02 "Hg10 mi
5:53 PM81 °FPartly sunny.8 mph72%30.02 "Hg10 mi
4:53 PM82 °FPartly sunny.9 mph70%30.01 "Hg10 mi
3:53 PM83 °FPartly sunny.7 mph65%30.01 "Hg10 mi
2:53 PM83 °FBroken clouds.9 mph68%30.03 "Hg10 mi
1:53 PM82 °FBroken clouds.5 mph67%30.04 "Hg10 mi
Weather by CustomWeather, © 2015

See weather overviewHow to use our weather pages